Location: Musselshell
(46.5176°N, 108.0911°W)
Time: 12:58:24
(UTC+00:00)

AO-91 - Pass Details

Date: 04 July 2022
Orbit: 450 x 798 km, 97.7° (Epoch: 07 August)

Event Time Altitude Azimuth Distance (km) Brightness Sun altitude
Rises 06:40:45 0° 4° (N) 2,504 ? -20.1°
Reaches altitude 10° 06:42:56 10° 354° (N) 1,604 ? -20.2°
Maximum altitude 06:45:59 31° 290° (WNW) 815 ? -20.3°
Enters shadow 06:46:54 26° 258° (WSW) 915 ? -20.3°
